Location: Brussels
(14.3448°N, 120.9362°E)
Time: 18:56:12
(UTC+00:00)

Daily predictions for brighter satellites

Satellite Brightness Start Highest point End
(mag) Time Altitude Azimuth Time Altitude Azimuth Time Altitude Azimuth
CZ-3 R/B 3.9 18:20:26 10° WSW 19:06:16 63° NNW 19:17:01 10° NE
Centaur AC-102 4.5 19:15:40 85° ESE 19:15:40 85° ESE 19:21:07 10° ESE
ATLAS 2AS CENTAUR RB 2.8 19:40:12 74° SSE 19:40:12 74° SSE 19:59:07 10° E
Cosmos 1943 Rocket 2.7 19:43:47 52° SE 19:43:47 52° SE 19:48:05 10° SSE
Timation 2 Rocket 4.0 19:49:49 67° S 19:49:49 67° S 19:54:58 10° SSE
SL-16 R/B 2.7 19:43:32 10° SSE 19:49:41 70° ENE 19:51:09 52° NNE
Cosmos 1943 4.3 19:44:33 10° S 19:49:48 42° ESE 19:55:02 10° NE
Atlas Centaur 2 2.9 19:49:17 59° SW 19:50:59 79° SSE 19:58:34 10° ENE
Cosmos 1725 Rocket 4.3 19:49:43 29° NNE 19:52:56 63° E 19:59:05 10° SSE
Cosmos 2278 Rocket 2.1 19:57:01 78° SE 19:57:01 78° SE 20:02:17 10° SSE
Cosmos 2173 Rocket 4.5 20:01:15 44° SSW 20:01:15 44° SSW 20:05:31 10° S
CZ-3 Stage 3 4.0 20:01:19 45° WNW 20:04:54 59° NNW 20:41:32 10° ENE
SEDSat Delta rocket 4.0 20:07:59 37° NE 20:07:59 37° NE 20:10:32 10° ENE
Iridium 4 Rocket 3.4 20:09:13 54° NE 20:09:52 62° E 20:14:17 10° S
Cosmos 2242 Rocket 3.9 20:05:54 10° S 20:09:31 59° SSE 20:09:31 59° SSE
Chandra Rocket (1) 4.2 20:14:09 21° N 20:15:53 24° NNE 20:24:27 10° E
Cosmos 1802 Rocket 3.9 20:19:42 43° NW 20:21:30 59° W 20:27:30 10° S
Cosmos 407 Rocket 3.5 20:23:03 55° WSW 20:23:03 55° WSW 20:28:02 10° S
SJ 16-02 2.7 20:25:50 10° N 20:29:46 37° ENE 20:33:42 10° SE
In-Cosmos 22 Rocket 4.2 20:25:13 10° SSW 20:30:56 65° W 20:36:42 10° N
Cosmos 1932 4.5 20:27:28 23° NNW 20:31:45 89° WSW 20:38:10 10° SSE
Cosmos 2016 Rocket 4.0 20:30:49 20° NNW 20:35:04 54° W 20:41:05 10° SSW
Cosmos 1025 Rocket 4.4 20:33:58 10° SSE 20:38:01 40° E 20:42:05 10° NNE
Cosmos 1110 Rocket 4.4 20:36:10 10° SW 20:40:59 37° WNW 20:45:50 10° N
CZ-3C R/B 0.2 20:41:31 56° SW 20:41:56 73° SSE 20:47:01 10° ENE
FengYun 1-2 T 4.2 20:38:32 10° N 20:44:03 60° WNW 20:49:36 10° SSW
Cosmos 1302 Rocket 4.2 20:39:03 10° S 20:44:11 71° ESE 20:49:18 10° NNE
ARIANE 5 R/B 3.5 20:43:22 13° SW 20:45:16 17° SSW 20:47:37 10° SSE
IRS-1D 3.3 20:42:47 10° N 20:47:42 76° WNW 20:52:40 10° SSW
Meteor 1-21 Rocket 4.4 20:42:52 10° SSW 20:48:30 52° W 20:54:01 10° N
USA 308 3.4 20:50:18 10° SSW 20:53:29 35° SE 20:55:37 10° ENE
Cosmos 1674 Rocket 3.4 20:51:09 10° S 20:55:32 70° W 20:59:56 10° N
Cosmos 304 Rocket 3.8 20:52:07 10° N 20:56:52 78° ENE 21:01:36 10° SSE
SWARM C 4.4 20:54:57 10° S 20:58:14 85° W 21:01:32 10° N
SWARM A 4.4 20:55:06 10° S 20:58:23 74° E 21:01:40 10° N
Cosmos 371 Rocket 3.4 20:54:11 10° N 20:59:00 79° ENE 21:03:47 10° SSE
SWIFT 2.6 21:03:16 21° WSW 21:05:05 40° SSW 21:08:19 10° SE
Palapa 6 Rocket 4.2 20:58:43 10° WSW 21:06:19 84° SSE 21:12:56 10° ENE
H-2A R/B 4.0 21:10:33 10° N 21:12:33 15° NE 21:16:08 10° ENE
RUBIN 8/PSLV 4.5 21:14:50 10° N 21:19:09 68° WNW 21:23:26 10° SSW
Helios 1A Rocket 3.7 21:23:23 10° SSE 21:26:34 43° ENE 21:29:46 10° N
Cosmos 2221 Rocket 3.9 21:23:03 10° SSW 21:27:20 44° W 21:31:39 10° NNW
Cosmos 1891 Rocket 4.5 21:23:42 10° NNW 21:29:45 61° W 21:35:43 10° S
Hubble Space Telescope 2.7 21:29:12 10° NW 21:31:01 13° NNW 21:32:50 10° NNE
CRRES 4.0 21:29:43 10° WNW 21:33:00 50° N 21:35:14 10° E
Cosmos 1812 3.4 21:35:33 10° NW 21:37:40 19° W 21:39:48 10° SW
Atlas Centaur 2 3.3 21:32:51 10° W 21:40:14 40° NNW 21:46:38 10° NE
Cosmos 1603 4.4 21:36:12 10° SW 21:41:12 31° WNW 21:46:14 10° N
